Location: Recife
(8.0585°S, 34.8848°W)
Time: 22:30:57
(UTC-03:00)

A-11 Canister half - Pass Details

Date: 20 April 2026
Orbit: 1523 x 1684 km, 47.3° (Epoch: 19 May)

Event Time Altitude Azimuth Distance (km) Brightness Sun altitude
Rises 21:21:49 0° 253° (WSW) 4,760 12.0 -61.1°
Reaches altitude 10° 21:26:15 10° 271° (W) 3,802 11.3 -62.2°
Enters shadow 21:27:53 13° 280° (W) 3,544 11.1 -62.5°
